Temperature
17 18 18 18 17 17 17 17 17 17 17 17 18 17 17 18 18 17 18 17 17 17 17 18 18 18 18 18 18 18 18 18 18 18 18 18 18 18 18 18 18 18 18
18 18 18 18 17 17 17 17 17 17 17 17 17 17 17 17 17 17 17 17 17 17 17 17 17 17 18 18 18 18 18 18 18 18 18 18 18 18 18 18 18 18 18
18 18 18 17 17 17 17 17 17 17 17 17 17 17 17 17 17 17 17 17 17 17 17 17 17 17 17 17 18 18 18 18 18 17 17 17 17 18 18 18 18 18 18
17 17 17 17 17 17 17 17 17 17 17 17 17 17 17 17 17 17 17 17 17 17 17 17 17 17 17 17 18 18 18 17 17 17 17 17 17 17 18 18 18 18 18
17 17 17 17 17 17 17 17 17 17 17 17 17 17 17 17 17 17 17 17 17 17 17 17 17 17 17 17 17 17 17 17 17 17 17 17 17 17 17 17 18 18 18
17 17 18 18 17 17 17 17 17 17 17 17 17 17 17 17 17 17 17 17 17 17 17 17 17 17 17 17 17 17 17 17 17 17 17 17 17 17 17 17 17 17 17
17 17 18 18 17 17 17 17 17 17 17 17 17 17 17 17 17 16 16 17 17 17 17 17 17 17 17 17 17 17 17 17 16 17 17 17 17 17 17 17 17 17 17
17 17 18 18 18 17 17 17 17 17 17 17 17 17 17 17 17 16 16 16 16 16 17 17 17 17 17 17 17 17 17 16 16 16 17 17 17 17 17 17 17 17 17
18 17 17 17 17 17 17 17 17 17 17 17 16 16 16 16 17 17 16 16 16 16 16 17 17 17 17 17 17 16 16 16 16 16 16 17 17 17 17 17 17 17 17
18 18 17 17 17 17 17 17 17 17 17 17 17 16 16 16 16 16 16 16 16 16 16 16 16 16 16 16 16 16 16 16 16 16 16 16 16 16 16 16 16 16 16
18 18 17 17 17 17 17 17 17 17 17 17 17 16 16 16 16 16 16 16 16 16 16 16 16 16 16 16 16 16 16 16 16 16 16 16 16 16 16 16 16 16 16
18 18 18 18 17 17 17 17 17 17 17 17 17 17 16 16 16 16 16 16 16 16 16 16 16 16 16 16 16 16 16 16 16 16 16 16 16 16 16 16 16 16 16
18 18 18 18 18 17 17 17 17 17 17 17 17 17 17 17 16 16 16 16 16 16 16 16 16 16 16 16 16 16 16 16 16 16 16 16 16 16 16 16 16 16 16
18 18 18 18 18 18 17 17 17 17 17 17 17 17 17 17 16 16 16 16 16 16 16 16 16 16 16 16 16 16 16 16 16 16 16 16 16 16 16 16 16 16 16
18 18 18 18 18 18 17 17 17 17 17 17 17 17 17 17 17 16 16 16 16 16 16 16 16 16 16 16 16 16 16 16 16 16 15 15 15 16 15 15 15 15 15
19 19 18 18 18 18 18 17 17 17 17 17 17 17 17 17 17 16 16 16 16 16 16 16 16 16 16 16 16 16 16 15 15 15 15 15 15 15 15 15 15 15 15
19 19 18 18 18 18 18 17 17 17 17 17 17 17 17 17 17 16 16 16 16 16 16 16 16 16 16 16 16 15 15 15 15 15 15 15 15 15 15 15 15 15 15
19 19 18 18 18 18 17 17 17 17 17 17 17 17 17 17 16 16 16 16 16 16 16 16 16 15 15 15 15 15 15 15 15 15 15 15 15 15 15 14 14 14 14
19 19 18 18 18 18 17 17 17 17 17 17 16 16 16 16 16 16 16 16 16 16 16 15 15 15 15 15 15 15 15 15 15 15 15 15 15 15 14 14 14 14 14
19 19 18 18 18 17 17 17 17 17 17 16 16 16 16 16 16 16 16 16 16 15 15 15 15 15 15 15 15 15 15 15 15 15 15 15 14 14 14 14 14 14 14
19 19 18 18 18 17 17 17 17 17 16 16 16 16 16 16 16 16 16 15 15 15 15 15 15 15 15 15 15 15 15 15 15 15 15 14 14 14 14 14 14 14 14
19 18 18 18 18 17 17 17 17 16 16 16 16 16 16 16 16 16 15 15 15 15 15 15 15 15 14 15 15 15 14 14 14 14 14 14 14 14 14 13 14 13 13
18 18 18 18 18 17 17 17 16 16 16 16 16 16 16 16 16 16 15 15 15 15 15 15 14 14 14 14 14 14 14 14 14 14 14 14 14 14 13 13 13 13 13
18 18 18 18 17 17 17 17 16 16 16 16 16 16 16 16 16 15 15 15 15 15 15 14 14 14 14 14 14 14 14 14 14 14 14 14 14 13 13 13 13 13 13
18 18 18 18 18 17 17 17 16 16 16 16 16 16 15 15 15 15 15 15 15 15 15 14 14 14 14 14 14 14 14 14 14 14 13 13 13 13 13 13 13 13 13
18 18 18 17 17 17 17 17 16 16 16 16 16 15 15 15 15 15 15 15 15 14 14 14 14 14 14 14 14 14 14 14 14 14 13 13 13 13 13 13 12 12 12
Wind_Speed
7 9 9 9 9 9 9 9 9 9 9 10 10 10 11 11 11 11 12 12 12 12 12 12 12 12 12 12 11 10 10 9 8 8 9 9 9 9 9 8 8 8 8
9 10 9 9 9 9 9 9 9 9 9 10 10 10 11 11 12 12 12 12 12 12 12 12 11 11 11 11 11 11 9 8 7 6 7 8 8 9 9 9 8 7 8
10 11 10 9 9 9 9 9 9 10 9 10 10 10 11 11 12 12 12 12 12 12 11 11 11 12 11 11 11 10 9 8 7 6 6 6 8 8 9 9 8 8 8
9 11 10 9 9 10 10 9 9 9 10 10 10 11 11 11 11 12 11 11 11 11 12 12 12 12 11 11 10 10 8 7 7 6 6 7 8 9 9 9 8 8 7
9 11 10 9 9 10 10 9 9 9 10 10 11 11 11 11 11 11 11 10 11 11 11 11 11 11 11 11 10 10 9 7 7 7 8 10 10 10 10 10 9 8 8
9 12 10 9 9 9 9 9 10 10 10 10 11 11 11 11 11 11 10 10 10 11 11 11 11 11 11 10 10 9 9 9 8 8 9 10 10 10 10 10 10 9 8
9 12 11 10 9 9 9 9 10 9 10 10 10 11 11 11 11 10 10 10 11 11 11 11 11 11 10 9 9 9 11 10 7 8 9 10 10 10 10 10 10 9 9
9 11 12 11 10 10 10 9 9 9 10 10 10 10 10 10 10 10 10 10 11 11 10 10 10 10 9 9 9 9 11 11 9 10 11 10 10 10 10 10 9 9 9
7 8 10 11 10 10 10 10 9 9 9 9 8 9 9 9 9 10 10 10 10 10 9 9 9 9 8 8 8 8 9 11 10 9 10 10 10 11 10 10 9 10 10
5 6 7 8 10 11 10 9 9 8 8 8 7 7 7 7 8 9 10 10 10 9 9 7 7 6 7 7 6 7 8 9 9 11 9 10 11 11 10 10 10 10 10
6 5 5 5 6 9 10 9 8 8 7 7 7 7 7 6 8 8 9 9 8 7 6 5 5 4 4 5 5 6 7 7 10 11 10 12 12 12 11 11 10 10 10
5 4 4 4 5 6 6 8 7 7 7 6 6 7 6 7 8 9 9 8 6 5 3 2 2 1 1 2 4 5 6 8 10 10 11 13 13 13 13 12 11 10 10
5 4 5 4 5 5 4 5 4 4 4 4 5 6 6 7 7 7 7 6 4 4 2 1 2 2 3 5 6 7 8 9 9 11 12 14 14 14 13 13 12 11 10
6 5 4 4 4 5 5 4 3 3 3 3 3 6 6 3 3 3 4 4 3 4 3 4 4 6 7 8 8 8 8 9 10 11 13 15 14 13 13 13 12 12 11
6 5 4 3 5 6 5 2 3 3 3 4 3 5 7 3 2 2 3 4 4 4 4 4 5 6 6 7 8 8 7 9 10 11 11 14 15 14 14 13 13 12 12
5 5 5 4 5 5 4 3 3 3 4 4 3 4 7 5 3 2 3 3 3 4 4 4 5 4 4 5 5 7 7 7 9 11 11 12 14 14 14 13 13 13 12
5 5 5 5 5 4 4 3 3 4 5 4 4 4 6 7 4 4 3 2 3 6 7 6 6 5 4 4 4 4 6 6 7 8 10 10 11 12 13 13 13 13 13
4 6 5 4 5 5 4 3 3 4 5 4 4 5 6 7 7 5 3 3 5 5 4 3 3 4 4 3 3 4 4 4 5 6 7 8 9 9 11 12 13 12 12
4 6 6 5 4 5 4 3 3 4 4 4 5 4 5 5 7 5 3 3 5 4 3 3 4 3 3 3 2 3 3 3 3 5 5 7 8 10 10 10 11 12 11
4 5 6 5 5 5 4 3 3 3 3 4 4 4 4 4 6 6 3 4 5 3 3 3 3 3 2 2 3 4 2 2 2 3 4 7 8 9 10 9 8 9 10
4 4 5 5 5 5 3 2 3 2 2 3 2 3 3 4 5 5 3 3 3 3 3 3 3 2 1 1 2 2 2 2 3 3 4 4 6 7 8 8 8 8 8
4 4 5 4 5 5 3 3 3 2 2 3 2 2 3 4 4 4 3 2 3 3 3 2 3 2 0 0 1 1 1 2 3 3 2 2 4 5 6 7 8 10 10
4 4 4 4 5 5 5 3 3 2 1 2 2 1 1 3 4 3 3 2 2 2 2 1 2 2 1 1 1 1 1 0 0 2 2 3 3 3 3 6 8 10 11
3 4 3 4 4 5 5 4 4 3 2 3 2 2 2 4 4 3 3 2 2 2 2 1 2 1 1 1 2 2 1 2 1 0 2 2 2 2 2 4 6 10 11
4 3 3 4 4 4 5 5 3 2 2 2 3 3 2 2 3 3 3 1 1 2 2 2 2 1 1 0 0 1 1 1 1 1 1 1 1 1 2 3 5 8 10
5 4 3 3 3 3 4 5 4 4 3 3 3 3 2 2 2 2 3 1 1 2 2 1 2 2 0 0 0 0 1 1 1 1 1 1 0 0 1 2 4 6 9
Wind_Direction
94 90 83 80 78 80 79 80 82 81 81 80 78 74 70 68 71 74 73 73 72 69 68 66 66 68 68 66 64 64 64 65 66 70 72 71 69 69 67 65 69 71 76
101 97 87 82 82 83 82 82 83 83 82 82 80 75 73 73 75 77 75 74 72 72 70 67 66 67 67 66 63 61 59 58 57 62 73 71 72 71 70 69 72 75 76
102 104 92 84 84 84 85 84 85 86 84 82 81 78 77 76 76 77 76 75 73 72 71 69 68 68 66 63 61 57 52 47 45 48 55 75 81 74 70 70 75 77 79
98 97 91 88 87 85 83 84 87 87 84 84 83 81 79 78 77 76 76 77 76 74 72 69 69 68 64 61 57 52 46 40 35 39 57 69 74 78 73 69 69 73 78
94 95 95 92 90 87 85 85 89 90 88 88 86 82 80 80 79 77 78 77 77 76 74 70 68 67 64 60 55 46 36 32 33 44 61 67 67 71 68 66 66 68 73
100 101 103 98 94 91 91 89 90 90 92 91 89 86 83 82 81 79 79 79 79 77 73 71 68 66 63 59 51 39 28 29 38 55 62 68 68 67 66 65 65 66 70
104 107 108 105 100 95 94 92 91 92 92 91 93 91 88 86 86 84 80 79 80 78 74 70 67 64 62 57 48 36 26 27 53 62 64 67 69 66 66 67 66 67 69
107 114 115 116 110 105 99 97 99 100 97 96 96 95 94 91 89 87 83 81 79 77 75 72 66 63 61 57 48 36 24 23 54 65 66 64 67 68 68 68 67 68 70
103 117 126 132 126 118 109 104 104 106 107 108 108 108 107 104 98 93 87 84 81 77 77 76 71 67 67 62 50 34 25 29 42 55 62 62 66 70 70 68 68 70 72
102 107 122 131 133 130 124 119 119 120 124 130 133 135 131 124 114 104 95 91 87 84 80 80 83 80 72 61 45 31 31 33 52 58 59 65 68 70 71 72 71 71 72
91 95 105 117 119 126 134 135 144 144 149 156 164 168 162 148 128 116 107 107 101 96 89 89 94 90 80 63 50 42 43 56 65 64 58 67 69 69 71 73 74 75 75
113 116 116 118 115 115 116 135 152 144 156 169 161 163 155 125 113 118 124 127 127 124 123 132 137 127 78 86 78 65 60 62 67 67 62 68 68 67 70 70 71 72 75
124 119 118 115 116 112 105 108 101 117 152 153 136 134 117 117 125 125 138 148 156 153 129 105 103 92 88 80 79 78 67 66 71 69 68 70 69 68 68 66 67 69 72
115 112 119 122 115 109 99 104 127 118 106 94 99 111 102 95 104 118 117 120 114 92 71 56 58 58 56 61 71 74 72 73 79 79 73 71 71 70 69 68 67 68 69
115 120 108 100 99 97 91 96 97 89 89 90 73 103 108 106 105 113 107 88 84 81 81 74 65 56 53 49 56 63 68 76 81 88 81 73 69 67 67 68 68 69 70
124 119 105 94 88 98 112 97 88 94 93 87 73 85 107 104 99 93 93 84 82 87 82 86 85 75 68 60 54 57 59 69 83 95 97 81 73 70 67 67 68 70 71
126 114 102 101 96 89 87 90 100 103 97 83 72 67 95 99 95 94 83 80 73 68 70 69 68 66 76 71 59 62 64 55 74 93 102 100 87 74 69 67 68 69 69
117 116 110 109 102 91 86 81 84 88 87 87 75 53 66 88 88 82 77 81 80 73 80 74 66 61 56 58 55 49 59 56 58 83 98 107 107 92 79 72 69 68 68
122 124 124 119 114 107 102 96 75 80 80 81 74 61 57 77 93 89 76 84 80 77 61 62 63 57 63 57 65 63 50 49 45 57 69 80 97 106 99 86 77 71 67
132 123 123 128 123 113 103 96 87 71 79 81 76 71 59 54 83 94 92 84 81 74 61 62 74 55 51 51 50 60 52 60 58 45 50 63 70 90 103 103 96 80 70
132 122 126 137 135 121 106 99 102 96 100 95 93 89 83 76 79 92 92 87 86 88 82 81 89 74 64 77 71 49 27 47 73 69 58 60 67 70 85 96 96 88 80
147 138 131 140 128 120 121 121 122 123 110 107 91 84 84 84 87 92 95 97 91 93 84 79 95 77 4 65 104 94 48 16 17 57 76 65 68 63 63 75 85 83 84
155 156 148 146 133 130 135 118 112 108 106 105 109 92 78 100 96 84 95 99 105 102 114 106 90 80 33 329 26 72 107 148 340 358 52 79 76 62 63 63 73 79 83
152 141 145 139 138 140 136 132 152 161 158 149 140 133 118 104 102 95 96 113 132 114 122 141 94 89 79 347 347 357 21 118 142 194 347 51 78 80 68 67 72 79 83
144 132 144 137 131 125 125 131 148 145 141 134 133 133 118 102 106 106 101 94 128 128 133 120 105 79 98 86 358 344 8 16 352 134 143 10 21 46 73 79 87 86 90
131 125 122 122 116 116 127 140 151 141 136 136 135 141 132 122 120 120 122 124 104 111 130 141 139 128 119 49 12 341 77 58 340 68 127 171 137 35 68 85 98 102 101
Height
1522 1521 1521 1521 1521 1522 1522 1522 1523 1523 1524 1524 1525 1525 1526 1526 1526 1527 1527 1527 1527 1528 1528 1528 1528 1528 1528 1529 1529 1529 1530 1530 1530 1531 1531 1532 1532 1532 1532 1533 1533 1533 1534
1523 1522 1522 1522 1522 1523 1523 1524 1524 1525 1525 1526 1526 1527 1527 1527 1528 1528 1528 1529 1529 1529 1529 1529 1529 1529 1530 1530 1530 1531 1531 1531 1532 1532 1532 1533 1533 1533 1533 1534 1534 1534 1535
1523 1523 1523 1523 1523 1524 1524 1525 1525 1526 1526 1527 1528 1528 1528 1529 1529 1530 1530 1530 1530 1530 1530 1531 1531 1531 1531 1531 1532 1532 1532 1533 1533 1533 1534 1534 1534 1534 1534 1535 1535 1535 1535
1524 1524 1524 1524 1524 1525 1525 1526 1526 1527 1527 1528 1529 1529 1530 1530 1531 1531 1531 1532 1532 1532 1532 1532 1532 1532 1532 1532 1533 1533 1533 1534 1534 1534 1534 1535 1535 1535 1535 1535 1535 1536 1536
1525 1525 1525 1525 1525 1526 1527 1527 1528 1528 1529 1529 1530 1531 1531 1532 1532 1533 1533 1533 1533 1533 1533 1533 1533 1534 1534 1534 1534 1534 1534 1535 1535 1535 1535 1535 1535 1536 1536 1536 1536 1536 1536
1526 1526 1526 1526 1527 1527 1528 1528 1529 1529 1530 1530 1531 1532 1532 1533 1533 1534 1534 1534 1535 1535 1535 1535 1535 1535 1535 1535 1535 1536 1536 1536 1536 1536 1536 1536 1536 1536 1536 1536 1536 1536 1537
1528 1527 1527 1527 1528 1528 1529 1529 1530 1531 1531 1532 1533 1533 1534 1534 1535 1535 1536 1536 1536 1536 1536 1536 1536 1536 1536 1536 1537 1537 1537 1537 1537 1537 1537 1537 1537 1537 1536 1537 1537 1537 1537
1529 1529 1529 1529 1529 1530 1530 1531 1531 1532 1533 1533 1534 1534 1535 1536 1536 1537 1537 1537 1538 1538 1538 1538 1538 1538 1538 1538 1538 1538 1538 1538 1539 1538 1538 1537 1537 1537 1537 1537 1537 1537 1537
1530 1530 1530 1530 1531 1531 1532 1532 1533 1533 1534 1535 1535 1536 1537 1537 1538 1538 1539 1539 1539 1539 1540 1540 1540 1540 1540 1540 1540 1540 1540 1540 1540 1539 1538 1538 1538 1537 1537 1537 1537 1538 1538
1532 1532 1532 1532 1533 1533 1533 1534 1534 1535 1536 1536 1537 1538 1538 1539 1539 1540 1540 1541 1541 1541 1541 1542 1542 1542 1542 1542 1542 1541 1541 1541 1541 1540 1540 1539 1538 1538 1538 1538 1538 1538 1538
1533 1534 1534 1534 1535 1535 1535 1536 1536 1537 1537 1538 1539 1539 1540 1540 1541 1541 1542 1543 1543 1543 1543 1543 1543 1543 1543 1543 1543 1543 1543 1542 1542 1541 1541 1541 1540 1539 1538 1538 1538 1538 1538
1533 1535 1535 1536 1536 1537 1537 1537 1538 1538 1539 1539 1540 1541 1541 1542 1542 1543 1544 1544 1545 1545 1545 1545 1545 1545 1545 1545 1545 1545 1544 1544 1543 1543 1543 1542 1541 1540 1539 1539 1539 1538 1538
1535 1536 1536 1537 1538 1538 1538 1539 1539 1540 1540 1541 1541 1542 1542 1543 1543 1544 1545 1545 1546 1546 1546 1546 1546 1546 1547 1547 1546 1546 1546 1546 1545 1544 1544 1544 1543 1542 1541 1540 1539 1539 1538
1535 1536 1537 1538 1539 1539 1539 1539 1540 1540 1541 1542 1542 1543 1543 1544 1545 1545 1546 1547 1547 1547 1547 1548 1548 1548 1548 1548 1548 1548 1548 1547 1547 1546 1546 1545 1545 1544 1542 1541 1540 1539 1538
1536 1537 1538 1539 1540 1540 1540 1540 1541 1541 1542 1542 1543 1544 1544 1545 1546 1546 1547 1548 1548 1549 1549 1549 1549 1549 1549 1549 1550 1549 1549 1549 1549 1548 1547 1547 1546 1545 1545 1543 1542 1541 1539
1536 1538 1538 1539 1540 1540 1541 1541 1541 1542 1543 1543 1544 1544 1545 1546 1546 1547 1548 1548 1549 1549 1550 1550 1550 1550 1550 1551 1551 1551 1551 1551 1550 1550 1549 1548 1548 1547 1547 1546 1545 1544 1543
1537 1538 1539 1539 1540 1541 1542 1542 1542 1543 1543 1544 1544 1545 1546 1546 1547 1547 1548 1549 1550 1550 1550 1550 1550 1551 1551 1552 1552 1552 1552 1552 1552 1551 1551 1550 1550 1549 1549 1548 1547 1546 1545
1537 1538 1538 1540 1540 1541 1542 1543 1543 1544 1544 1545 1545 1546 1547 1547 1547 1548 1549 1549 1550 1550 1551 1551 1551 1551 1552 1553 1553 1553 1553 1553 1553 1553 1552 1552 1551 1551 1550 1550 1549 1548 1548
1537 1538 1538 1539 1541 1541 1542 1543 1543 1544 1545 1545 1546 1547 1547 1548 1548 1549 1549 1550 1550 1550 1551 1551 1552 1552 1553 1553 1553 1554 1554 1554 1554 1554 1554 1554 1553 1552 1552 1551 1551 1550 1549
1536 1538 1538 1539 1540 1541 1542 1543 1544 1545 1545 1546 1547 1547 1548 1548 1549 1549 1549 1550 1550 1551 1551 1551 1552 1553 1553 1553 1554 1554 1554 1555 1555 1555 1555 1555 1555 1554 1553 1553 1552 1551 1551
1536 1537 1538 1539 1540 1541 1542 1543 1544 1545 1545 1546 1547 1547 1548 1548 1549 1549 1550 1550 1551 1551 1551 1552 1552 1553 1553 1554 1554 1554 1555 1555 1555 1555 1556 1556 1555 1555 1554 1553 1553 1552 1552
1535 1536 1537 1538 1539 1540 1542 1543 1544 1545 1545 1546 1547 1547 1548 1548 1549 1549 1550 1550 1551 1551 1551 1552 1553 1553 1553 1554 1554 1554 1555 1557 1556 1556 1556 1556 1556 1555 1555 1555 1554 1553 1552
1535 1536 1537 1538 1539 1540 1541 1542 1543 1544 1545 1546 1546 1547 1548 1548 1548 1549 1550 1550 1551 1551 1551 1552 1552 1553 1553 1554 1555 1555 1555 1555 1556 1557 1556 1556 1556 1556 1555 1555 1554 1553 1552
1534 1535 1536 1537 1538 1539 1540 1541 1543 1544 1545 1545 1546 1547 1547 1547 1548 1548 1549 1550 1550 1551 1551 1552 1552 1553 1553 1554 1554 1554 1555 1555 1555 1556 1557 1556 1556 1556 1555 1555 1554 1553 1553
1532 1534 1535 1536 1537 1539 1539 1540 1542 1543 1544 1545 1545 1546 1546 1547 1547 1548 1548 1549 1550 1550 1551 1551 1552 1552 1552 1553 1553 1553 1554 1554 1555 1555 1555 1556 1556 1555 1555 1555 1554 1553 1553
1531 1532 1534 1535 1536 1537 1538 1539 1541 1542 1543 1544 1544 1545 1546 1546 1547 1547 1548 1548 1549 1549 1550 1550 1551 1551 1552 1552 1552 1553 1553 1553 1554 1554 1554 1554 1554 1555 1554 1554 1554 1553 1552